VOE61EC LFKJ-LFRS

Flight info

Callsign VOE61EC
Flight time 1h 36m
Altitude 38000
Route TINOT DCT AMFAC DCT FJR DCT GAI DCT SECHE DCT UVELI DCT CNA DCT MANAK
Aircraft A319/M-SDE3FGHIRWY/LB1

Departure

Time 2026-05-04 17:36
Airport Ajaccio Napoléon Bonaparte airport (LFKJ)

Arrival

Time 2026-05-04 19:12
Airport Nantes Atlantique Airport (LFRS)
Time Latitude Longitude Altitude Speed Heading
2026-05-04 16:53 41.91915 8.79536 21 ft 0 kts 345°
2026-05-04 17:25 41.91893 8.79544 21 ft 4 kts 345°
2026-05-04 17:26 41.91877 8.79549 21 ft 0 kts 345°
2026-05-04 17:29 41.91914 8.79606 21 ft 7 kts 44°
2026-05-04 17:30 41.92067 8.79710 21 ft 11 kts 25°
2026-05-04 17:31 41.92200 8.79793 23 ft 11 kts 25°
2026-05-04 17:31 41.92529 8.79998 23 ft 19 kts 25°
2026-05-04 17:32 41.92755 8.80145 21 ft 18 kts 32°
2026-05-04 17:33 41.92964 8.80466 22 ft 11 kts 103°
2026-05-04 17:33 41.92951 8.80546 26 ft 7 kts 84°
2026-05-04 17:34 41.93157 8.80667 24 ft 11 kts 54°
2026-05-04 17:34 41.93122 8.80699 25 ft 7 kts 206°
2026-05-04 17:35 41.93100 8.80685 30 ft 3 kts 205°
2026-05-04 17:35 41.92248 8.80155 23 ft 138 kts 205°
2026-05-04 17:35 41.91277 8.79550 390 ft 156 kts 206°
2026-05-04 17:36 41.90310 8.78919 1073 ft 155 kts 205°
2026-05-04 17:36 41.89373 8.78192 1724 ft 156 kts 215°
2026-05-04 17:36 41.88427 8.77284 2147 ft 177 kts 213°
2026-05-04 17:36 41.87355 8.76299 2576 ft 198 kts 213°
2026-05-04 17:37 41.86139 8.75178 2952 ft 227 kts 212°
2026-05-04 17:37 41.84743 8.73900 3022 ft 252 kts 212°
2026-05-04 17:37 41.83301 8.72569 3005 ft 256 kts 213°
2026-05-04 17:37 41.81837 8.71210 3010 ft 256 kts 213°
2026-05-04 17:38 41.80382 8.69849 3015 ft 255 kts 213°
2026-05-04 17:38 41.78921 8.68489 3496 ft 255 kts 212°
2026-05-04 17:38 41.77462 8.67163 4643 ft 254 kts 213°
2026-05-04 17:38 41.75993 8.65852 5710 ft 255 kts 213°
2026-05-04 17:39 41.72992 8.63110 7476 ft 269 kts 223°
2026-05-04 17:39 41.71975 8.61006 8378 ft 276 kts 249°
2026-05-04 17:39 41.71818 8.58433 9282 ft 285 kts 278°
2026-05-04 17:40 41.72572 8.55959 10171 ft 292 kts 296°
2026-05-04 17:40 41.73594 8.53503 10605 ft 314 kts 297°
2026-05-04 17:40 41.74702 8.50897 11140 ft 327 kts 297°
2026-05-04 17:40 41.75846 8.48231 11921 ft 332 kts 297°
2026-05-04 17:41 41.77003 8.45539 12761 ft 335 kts 297°
2026-05-04 17:41 41.78166 8.42814 13589 ft 338 kts 296°
2026-05-04 17:41 41.79337 8.40056 14347 ft 342 kts 296°
2026-05-04 17:41 41.80511 8.37270 15046 ft 345 kts 296°
2026-05-04 17:42 41.81692 8.34452 15749 ft 348 kts 296°
2026-05-04 17:42 41.82879 8.31601 16430 ft 352 kts 296°
2026-05-04 17:42 41.83979 8.28661 17100 ft 354 kts 289°
2026-05-04 17:42 41.84909 8.25592 17775 ft 357 kts 289°
2026-05-04 17:43 41.85853 8.22489 18446 ft 361 kts 289°
2026-05-04 17:43 41.86809 8.19358 19033 ft 364 kts 289°
2026-05-04 17:43 41.87774 8.16197 19629 ft 367 kts 289°
2026-05-04 17:43 41.88744 8.13013 20231 ft 370 kts 289°
2026-05-04 17:44 41.89723 8.09802 20842 ft 373 kts 289°
2026-05-04 17:44 41.90707 8.06568 21442 ft 376 kts 289°
2026-05-04 17:44 41.91682 8.03350 22023 ft 379 kts 289°
2026-05-04 17:44 41.92677 8.00056 22615 ft 382 kts 289°
2026-05-04 17:45 41.93678 7.96737 23189 ft 385 kts 289°
2026-05-04 17:45 41.94686 7.93393 23734 ft 388 kts 289°
2026-05-04 17:45 41.95704 7.90019 24213 ft 390 kts 289°
2026-05-04 17:45 41.96723 7.86637 24712 ft 391 kts 289°
2026-05-04 17:46 41.97747 7.83243 25206 ft 393 kts 289°
2026-05-04 17:46 41.98771 7.79834 25699 ft 394 kts 288°
2026-05-04 17:46 41.99792 7.76414 26182 ft 395 kts 288°
2026-05-04 17:46 42.00818 7.72981 26659 ft 396 kts 288°
2026-05-04 17:47 42.01845 7.69543 27130 ft 397 kts 288°
2026-05-04 17:47 42.02876 7.66093 27592 ft 399 kts 287°
2026-05-04 17:47 42.03912 7.62622 28055 ft 400 kts 287°
2026-05-04 17:47 42.04949 7.59142 28515 ft 401 kts 287°
2026-05-04 17:48 42.05988 7.55651 28969 ft 403 kts 287°
2026-05-04 17:48 42.07030 7.52148 29421 ft 404 kts 287°
2026-05-04 17:48 42.08078 7.48630 29853 ft 406 kts 286°
2026-05-04 17:48 42.09126 7.45095 30253 ft 407 kts 286°
2026-05-04 17:49 42.10175 7.41547 30610 ft 408 kts 286°
2026-05-04 17:49 42.11226 7.37988 30951 ft 410 kts 286°
2026-05-04 17:49 42.12266 7.34462 31286 ft 411 kts 286°
2026-05-04 17:49 42.13321 7.30877 31624 ft 413 kts 285°
2026-05-04 17:50 42.14379 7.27282 32022 ft 412 kts 285°
2026-05-04 17:50 42.15434 7.23704 32509 ft 410 kts 285°
2026-05-04 17:50 42.16482 7.20145 32991 ft 407 kts 285°
2026-05-04 17:50 42.17521 7.16603 33471 ft 405 kts 284°
2026-05-04 17:51 42.18550 7.13075 33946 ft 404 kts 284°
2026-05-04 17:51 42.19576 7.09562 34365 ft 402 kts 284°
2026-05-04 17:51 42.20598 7.06058 34748 ft 401 kts 284°
2026-05-04 17:51 42.21617 7.02563 35123 ft 400 kts 285°
2026-05-04 17:52 42.22632 6.99070 35472 ft 399 kts 285°
2026-05-04 17:52 42.23640 6.95596 35820 ft 398 kts 285°
2026-05-04 17:52 42.24651 6.92116 36162 ft 397 kts 285°
2026-05-04 17:52 42.25659 6.88646 36499 ft 397 kts 285°
2026-05-04 17:53 42.26663 6.85187 36829 ft 396 kts 285°
2026-05-04 17:53 42.27663 6.81732 37151 ft 395 kts 285°
2026-05-04 17:53 42.28659 6.78287 37466 ft 394 kts 285°
2026-05-04 17:53 42.29650 6.74843 37783 ft 393 kts 285°
2026-05-04 17:54 42.30622 6.71451 37987 ft 393 kts 285°
2026-05-04 17:54 42.31607 6.68020 38021 ft 391 kts 285°
2026-05-04 17:54 42.33563 6.61170 38024 ft 390 kts 285°
2026-05-04 17:55 42.35527 6.54327 38013 ft 391 kts 285°
2026-05-04 17:55 42.37491 6.47473 38017 ft 391 kts 285°
2026-05-04 17:56 42.39439 6.40605 38010 ft 391 kts 285°
2026-05-04 17:56 42.41384 6.33719 38014 ft 392 kts 285°
2026-05-04 17:57 42.43335 6.26834 38010 ft 392 kts 285°
2026-05-04 17:57 42.45287 6.19948 38012 ft 392 kts 285°
2026-05-04 17:58 42.47217 6.13092 38009 ft 392 kts 285°
2026-05-04 17:58 42.49154 6.06185 38008 ft 392 kts 285°
2026-05-04 17:59 42.51092 5.99267 38005 ft 393 kts 284°
2026-05-04 18:00 42.53990 5.88872 38006 ft 393 kts 284°
2026-05-04 18:00 42.55916 5.81935 37996 ft 393 kts 284°
2026-05-04 18:01 42.57846 5.74980 37993 ft 394 kts 284°
2026-05-04 18:01 42.59444 5.69200 37995 ft 394 kts 284°
2026-05-04 18:02 42.62334 5.58743 37996 ft 395 kts 284°
2026-05-04 18:02 42.64565 5.50621 37989 ft 395 kts 284°
2026-05-04 18:03 42.66472 5.43621 37989 ft 396 kts 284°
2026-05-04 18:03 42.68074 5.37745 37986 ft 396 kts 284°
2026-05-04 18:04 42.70380 5.30950 37991 ft 407 kts 297°
2026-05-04 18:05 42.76047 5.22126 37984 ft 415 kts 305°
2026-05-04 18:05 42.79934 5.16307 37979 ft 415 kts 304°
2026-05-04 18:06 42.85747 5.07549 37984 ft 416 kts 304°
2026-05-04 18:06 42.89626 5.01701 37979 ft 416 kts 305°
2026-05-04 18:07 42.93532 4.95856 37977 ft 417 kts 305°
2026-05-04 18:07 42.97431 4.89995 37970 ft 417 kts 305°
2026-05-04 18:08 43.01298 4.84147 37971 ft 417 kts 304°
2026-05-04 18:08 43.05193 4.78256 37972 ft 418 kts 305°
2026-05-04 18:09 43.12991 4.66435 37970 ft 419 kts 305°
2026-05-04 18:10 43.16890 4.60501 37973 ft 419 kts 305°
2026-05-04 18:10 43.20791 4.54568 37970 ft 419 kts 305°
2026-05-04 18:11 43.24697 4.48616 37967 ft 420 kts 305°
2026-05-04 18:11 43.28595 4.42646 37969 ft 420 kts 305°
2026-05-04 18:12 43.32494 4.36655 37964 ft 421 kts 305°
2026-05-04 18:12 43.36401 4.30661 37956 ft 421 kts 305°
2026-05-04 18:13 43.40278 4.24697 37952 ft 421 kts 305°
2026-05-04 18:14 43.46126 4.15651 37947 ft 422 kts 305°
2026-05-04 18:14 43.50031 4.09608 37944 ft 423 kts 305°
2026-05-04 18:15 43.57406 3.97100 37941 ft 413 kts 291°
2026-05-04 18:16 43.59266 3.89756 37938 ft 404 kts 279°
2026-05-04 18:16 43.60642 3.82236 37934 ft 405 kts 279°
2026-05-04 18:17 43.62724 3.70917 37947 ft 406 kts 279°
2026-05-04 18:18 43.64793 3.59562 37955 ft 407 kts 279°
2026-05-04 18:18 43.66167 3.51976 37950 ft 407 kts 279°
2026-05-04 18:19 43.68219 3.40629 37962 ft 408 kts 279°
2026-05-04 18:19 43.69586 3.33017 37949 ft 408 kts 279°
2026-05-04 18:20 43.70939 3.25410 37945 ft 408 kts 279°
2026-05-04 18:20 43.72290 3.17786 37954 ft 408 kts 279°
2026-05-04 18:21 43.73642 3.10159 37952 ft 409 kts 279°
2026-05-04 18:21 43.74989 3.02523 37952 ft 409 kts 279°
2026-05-04 18:22 43.76330 2.94881 37952 ft 409 kts 279°
2026-05-04 18:22 43.77669 2.87235 37955 ft 409 kts 279°
2026-05-04 18:23 43.78998 2.79579 37957 ft 409 kts 278°
2026-05-04 18:23 43.80320 2.71910 37954 ft 410 kts 278°
2026-05-04 18:24 43.81642 2.64238 37957 ft 410 kts 278°
2026-05-04 18:24 43.82964 2.56558 37959 ft 410 kts 278°
2026-05-04 18:25 43.84275 2.48919 37957 ft 411 kts 278°
2026-05-04 18:25 43.85588 2.41210 37955 ft 411 kts 278°
2026-05-04 18:26 43.86889 2.33498 37958 ft 412 kts 278°
2026-05-04 18:26 43.88189 2.25763 37960 ft 412 kts 278°
2026-05-04 18:27 43.89495 2.18020 37955 ft 413 kts 278°
2026-05-04 18:27 43.90802 2.10252 37942 ft 414 kts 278°
2026-05-04 18:28 43.92101 2.02468 37936 ft 414 kts 278°
2026-05-04 18:28 43.93397 1.94667 37939 ft 415 kts 278°
2026-05-04 18:29 43.94686 1.86856 37938 ft 415 kts 278°
2026-05-04 18:29 43.96606 1.79246 37939 ft 425 kts 292°
2026-05-04 18:30 44.00757 1.68336 37946 ft 427 kts 292°
2026-05-04 18:31 44.03496 1.61025 37944 ft 426 kts 292°
2026-05-04 18:31 44.06213 1.53756 37942 ft 427 kts 292°
2026-05-04 18:32 44.08980 1.46376 37944 ft 428 kts 292°
2026-05-04 18:32 44.11713 1.39087 37945 ft 428 kts 292°
2026-05-04 18:33 44.14461 1.31720 37943 ft 429 kts 292°
2026-05-04 18:33 44.17205 1.24330 37943 ft 430 kts 292°
2026-05-04 18:34 44.19945 1.16927 37945 ft 430 kts 292°
2026-05-04 18:34 44.22682 1.09510 37944 ft 431 kts 292°
2026-05-04 18:35 44.25429 1.02074 37952 ft 431 kts 292°
2026-05-04 18:35 44.28175 0.94627 37953 ft 432 kts 292°
2026-05-04 18:36 44.30912 0.87158 37955 ft 432 kts 292°
2026-05-04 18:36 44.33630 0.79728 37958 ft 433 kts 292°
2026-05-04 18:37 44.36367 0.72222 37963 ft 433 kts 292°
2026-05-04 18:37 44.39095 0.64716 37963 ft 434 kts 292°
2026-05-04 18:38 44.41870 0.57223 37958 ft 437 kts 297°
2026-05-04 18:38 44.43686 0.53784 37957 ft 443 kts 308°
2026-05-04 18:38 44.45938 0.50815 37951 ft 449 kts 318°
2026-05-04 18:38 44.48575 0.48428 37946 ft 455 kts 329°
2026-05-04 18:39 44.51443 0.46511 37942 ft 456 kts 331°
2026-05-04 18:39 44.57183 0.42712 37927 ft 457 kts 330°
2026-05-04 18:40 44.62925 0.38882 37936 ft 457 kts 330°
2026-05-04 18:40 44.68676 0.35047 37943 ft 458 kts 330°
2026-05-04 18:41 44.74399 0.31229 37937 ft 458 kts 330°
2026-05-04 18:41 44.80156 0.27374 37939 ft 459 kts 330°
2026-05-04 18:42 44.85919 0.23503 37943 ft 459 kts 330°
2026-05-04 18:42 44.91684 0.19620 37949 ft 460 kts 330°
2026-05-04 18:43 44.97458 0.15721 37950 ft 460 kts 330°
2026-05-04 18:43 45.03236 0.11811 37960 ft 461 kts 331°
2026-05-04 18:44 45.09016 0.07907 37957 ft 460 kts 331°
2026-05-04 18:44 45.14791 0.03980 37958 ft 460 kts 330°
2026-05-04 18:45 45.20526 0.00059 37964 ft 461 kts 330°
2026-05-04 18:45 45.26304 -0.03883 37966 ft 461 kts 330°
2026-05-04 18:46 45.32100 -0.07845 37308 ft 467 kts 331°
2026-05-04 18:46 45.35064 -0.09878 36155 ft 479 kts 331°
2026-05-04 18:46 45.38050 -0.11924 35744 ft 473 kts 331°
2026-05-04 18:46 45.41014 -0.13948 35174 ft 471 kts 331°
2026-05-04 18:47 45.43962 -0.15960 34607 ft 469 kts 331°
2026-05-04 18:47 45.46901 -0.17974 34032 ft 468 kts 331°
2026-05-04 18:47 45.49831 -0.19992 33390 ft 466 kts 331°
2026-05-04 18:47 45.52735 -0.21998 32835 ft 463 kts 331°
2026-05-04 18:48 45.55625 -0.23997 32266 ft 460 kts 331°
2026-05-04 18:48 45.58493 -0.25979 31709 ft 458 kts 331°
2026-05-04 18:48 45.61351 -0.27960 31156 ft 455 kts 331°
2026-05-04 18:48 45.64194 -0.29934 30613 ft 453 kts 330°
2026-05-04 18:49 45.66851 -0.32182 30085 ft 446 kts 320°
2026-05-04 18:49 45.69279 -0.34880 29560 ft 440 kts 317°
2026-05-04 18:49 45.71671 -0.37583 29076 ft 435 kts 317°
2026-05-04 18:49 45.74037 -0.40248 28600 ft 431 kts 317°
2026-05-04 18:50 45.76384 -0.42892 28136 ft 427 kts 317°
2026-05-04 18:50 45.78707 -0.45513 27688 ft 424 kts 317°
2026-05-04 18:50 45.81012 -0.48118 27242 ft 421 kts 317°
2026-05-04 18:50 45.83304 -0.50715 26797 ft 418 kts 317°
2026-05-04 18:51 45.85574 -0.53289 26360 ft 415 kts 317°
2026-05-04 18:51 45.87834 -0.55856 25906 ft 413 kts 317°
2026-05-04 18:51 45.90080 -0.58408 25461 ft 411 kts 317°
2026-05-04 18:51 45.92319 -0.60952 24999 ft 409 kts 317°
2026-05-04 18:52 45.94546 -0.63481 24535 ft 407 kts 318°
2026-05-04 18:52 45.96764 -0.66003 24061 ft 406 kts 317°
2026-05-04 18:52 45.98971 -0.68519 23572 ft 405 kts 317°
2026-05-04 18:52 46.01175 -0.71032 23030 ft 403 kts 318°
2026-05-04 18:53 46.03362 -0.73529 22552 ft 400 kts 318°
2026-05-04 18:53 46.05530 -0.76009 22073 ft 396 kts 318°
2026-05-04 18:53 46.07680 -0.78470 21605 ft 393 kts 318°
2026-05-04 18:53 46.09785 -0.80884 21150 ft 390 kts 318°
2026-05-04 18:54 46.11895 -0.83313 20690 ft 387 kts 318°
2026-05-04 18:54 46.13988 -0.85725 20237 ft 384 kts 318°
2026-05-04 18:54 46.16063 -0.88116 19794 ft 380 kts 319°
2026-05-04 18:54 46.18126 -0.90489 19344 ft 377 kts 319°
2026-05-04 18:55 46.20164 -0.92834 18904 ft 374 kts 319°
2026-05-04 18:55 46.24192 -0.97469 18010 ft 367 kts 319°
2026-05-04 18:55 46.26182 -0.99759 17570 ft 363 kts 319°
2026-05-04 18:56 46.28146 -1.02025 17157 ft 358 kts 319°
2026-05-04 18:56 46.30075 -1.04259 16745 ft 354 kts 319°
2026-05-04 18:56 46.31989 -1.06486 16334 ft 351 kts 319°
2026-05-04 18:56 46.33878 -1.08687 15938 ft 347 kts 319°
2026-05-04 18:57 46.35753 -1.10869 15544 ft 344 kts 320°
2026-05-04 18:57 46.37612 -1.13031 15146 ft 341 kts 320°
2026-05-04 18:57 46.39458 -1.15178 14753 ft 339 kts 320°
2026-05-04 18:57 46.41289 -1.17312 14364 ft 337 kts 320°
2026-05-04 18:58 46.43083 -1.19408 13983 ft 334 kts 320°
2026-05-04 18:58 46.44910 -1.21542 13575 ft 332 kts 320°
2026-05-04 18:58 46.46685 -1.23599 13057 ft 333 kts 321°
2026-05-04 18:58 46.48516 -1.25644 12599 ft 331 kts 322°
2026-05-04 18:59 46.50348 -1.27647 12187 ft 328 kts 323°
2026-05-04 18:59 46.52167 -1.29623 11779 ft 325 kts 323°
2026-05-04 18:59 46.53967 -1.31583 11446 ft 320 kts 323°
2026-05-04 18:59 46.55712 -1.33492 11304 ft 309 kts 323°
2026-05-04 19:00 46.57417 -1.35369 10965 ft 306 kts 323°
2026-05-04 19:00 46.59104 -1.37233 10609 ft 303 kts 323°
2026-05-04 19:00 46.60775 -1.39084 10252 ft 301 kts 323°
2026-05-04 19:00 46.62435 -1.40924 9890 ft 299 kts 323°
2026-05-04 19:01 46.64080 -1.42750 9510 ft 296 kts 324°
2026-05-04 19:01 46.65160 -1.43948 9254 ft 294 kts 324°
2026-05-04 19:01 46.67325 -1.46349 8743 ft 291 kts 323°
2026-05-04 19:01 46.68926 -1.48127 8366 ft 288 kts 323°
2026-05-04 19:02 46.69975 -1.49294 8113 ft 286 kts 323°
2026-05-04 19:02 46.71548 -1.51046 7719 ft 283 kts 323°
2026-05-04 19:02 46.73099 -1.52772 7231 ft 278 kts 323°
2026-05-04 19:02 46.75125 -1.55032 6414 ft 274 kts 323°
2026-05-04 19:03 46.76142 -1.56170 5991 ft 272 kts 323°
2026-05-04 19:03 46.77635 -1.57841 5325 ft 269 kts 323°
2026-05-04 19:03 46.79102 -1.59480 4828 ft 261 kts 323°
2026-05-04 19:03 46.80519 -1.61060 4441 ft 254 kts 323°
2026-05-04 19:04 46.81889 -1.62589 4297 ft 242 kts 323°
2026-05-04 19:04 46.83189 -1.64041 4168 ft 229 kts 323°
2026-05-04 19:04 46.84436 -1.65436 3883 ft 226 kts 323°
2026-05-04 19:04 46.85652 -1.66797 3643 ft 219 kts 323°
2026-05-04 19:05 46.86864 -1.68156 3522 ft 215 kts 323°
2026-05-04 19:05 46.88033 -1.69470 3420 ft 214 kts 323°
2026-05-04 19:05 46.89182 -1.70763 3317 ft 203 kts 323°
2026-05-04 19:05 46.90272 -1.71990 3233 ft 195 kts 323°
2026-05-04 19:06 46.91341 -1.73196 3151 ft 193 kts 323°
2026-05-04 19:06 46.92407 -1.74396 3059 ft 193 kts 323°
2026-05-04 19:06 46.93529 -1.75443 3017 ft 192 kts 338°
2026-05-04 19:06 46.94822 -1.75861 3031 ft 191 kts 358°
2026-05-04 19:07 46.96137 -1.75562 3009 ft 192 kts 19°
2026-05-04 19:07 46.97341 -1.74703 3033 ft 193 kts 26°
2026-05-04 19:07 46.98537 -1.73800 3036 ft 193 kts 26°
2026-05-04 19:07 46.99731 -1.72897 3033 ft 192 kts 26°
2026-05-04 19:08 47.00896 -1.72016 2972 ft 186 kts 26°
2026-05-04 19:08 47.02038 -1.71152 2790 ft 184 kts 25°
2026-05-04 19:08 47.03166 -1.70298 2572 ft 180 kts 25°
2026-05-04 19:08 47.04260 -1.69469 2325 ft 174 kts 25°
2026-05-04 19:09 47.05307 -1.68676 2093 ft 166 kts 24°
2026-05-04 19:09 47.06321 -1.67907 1873 ft 162 kts 24°
2026-05-04 19:09 47.07288 -1.67174 1661 ft 154 kts 24°
2026-05-04 19:09 47.08230 -1.66459 1454 ft 147 kts 23°
2026-05-04 19:10 47.09124 -1.65781 1258 ft 142 kts 24°
2026-05-04 19:10 47.09958 -1.65147 1068 ft 133 kts 23°
2026-05-04 19:10 47.10769 -1.64531 890 ft 129 kts 24°
2026-05-04 19:10 47.11573 -1.63922 706 ft 131 kts 24°
2026-05-04 19:11 47.12378 -1.63310 531 ft 131 kts 24°
2026-05-04 19:11 47.13191 -1.62688 322 ft 132 kts 24°
2026-05-04 19:11 47.14004 -1.62070 195 ft 130 kts 25°
2026-05-04 19:11 47.14785 -1.61474 99 ft 113 kts 22°
2026-05-04 19:12 47.15334 -1.61061 96 ft 64 kts 27°
2026-05-04 19:12 47.15880 -1.60646 97 ft 32 kts 27°
2026-05-04 19:12 47.16006 -1.60522 94 ft 12 kts 72°
2026-05-04 19:13 47.15988 -1.60437 93 ft 2 kts 116°
2026-05-04 19:13 47.15986 -1.60432 93 ft 1 kts 116°
2026-05-04 19:13 47.15984 -1.60425 94 ft 0 kts 115°
2026-05-04 19:13 47.15982 -1.60420 94 ft 3 kts 116°
2026-05-04 19:14 47.15963 -1.60367 93 ft 8 kts 121°
2026-05-04 19:14 47.15931 -1.60343 94 ft 4 kts 180°
2026-05-04 19:14 47.15904 -1.60360 95 ft 7 kts 208°
2026-05-04 19:14 47.15862 -1.60391 96 ft 6 kts 206°
2026-05-04 19:15 47.15820 -1.60423 97 ft 6 kts 203°
2026-05-04 19:15 47.15801 -1.60408 97 ft 2 kts 131°
2026-05-04 19:15 47.15786 -1.60379 98 ft 4 kts 127°
2026-05-04 19:15 47.15773 -1.60353 100 ft 3 kts 127°
2026-05-04 19:16 47.15763 -1.60335 98 ft 0 kts 127°